Tracking 30143 objects as of 20-Jan-2025
HD Live streaming from Space Station
objects crossing your sky now

BREEZE-M DEB (TANK)

Track BREEZE-M DEB (TANK) now!
10-day predictions


NORAD ID: 39524
Int'l Code: 2014-007C
Perigee: 270.8 km
Apogee: 20,025.6 km
Inclination: 49.3 °
Period: 352.2 minutes
Semi major axis: 16519 km
RCS: Unknown
Launch date: February 14, 2014
Source: Commonwealth of Independent States (former USSR) (CIS)
Launch site: TYURATAM MISSILE AND SPACE COMPLEX (TTMTR)

Note: This is SATELLITE DEBRIS
Your satellite tracking list
Your tracking list is empty




NASA's NSSDC Master Catalog

Two Line Element Set (TLE):
1 39524U 14007C   25020.63408152  .00008286  00000-0  11783-2 0  9999
2 39524  49.3422 240.1736 5979374 303.7161  12.9309  4.08902192151430
Source of the keplerian elements: AFSPC